Oscoda, MI

5:58 AM EST on December 16, 2019 (GMT -0500)
Oscoda-Wurtsmith

Weather History for KOSC - October, 2019

Change the Weather History Date:

Friday, October 11, 2019

  Actual Average Record
Temperature  
Mean Temperature 58 °F -  
Max Temperature 66 °F 57 °F 76 °F (2015)
Min Temperature 51 °F 39 °F 29 °F (2012)
Degree Days  
Heating Degree Days 6    
Growing Degree Days 8 (Base 50)    
Moisture  
Dew Point 54 °F    
Average Humidity 78    
Maximum Humidity 95    
Minimum Humidity 67    
Precipitation  
Precipitation 0.07 in - - ()
Sea Level Pressure  
Sea Level Pressure 29.95 in    
Wind  
Wind Speed 10 mph (SE)    
Max Wind Speed 22 mph    
Max Gust Speed 34 mph    
Visibility 10 miles    
Events Rain    
Averages and records for this station are not official NWS values.
T = Trace of Precipitation, MM = Missing Value Source: NWS Daily Summary

Daily Weather History Graph

Daily Weather History Graph

Search for Another Location

Airport or City:

Astronomy

Oct. 11, 2019 Rise Set
Actual Time 7:43 AM EDT 6:56 PM EDT
Civil Twilight 7:14 AM EDT 7:25 PM EDT
Nautical Twilight 6:40 AM EDT 7:59 PM EDT
Astronomical Twilight 6:06 AM EDT 8:32 PM EDT
Moon 6:32 PM EDT (10/11) 5:14 AM EDT (10/11)
Length of Visible Light 12h 11m
Length of Day
11h 13m
Waxing Gibbous, 96% of the Moon is Illuminated
Oct 11
Waxing Gibbous
Oct 13
Full
Oct 21
Last Quarter
Oct 27
New
Nov 4
First Quarter

Hourly Weather History & Observations

Time (EDT) Temp. Dew Point Humidity Pressure Visibility Wind Dir Wind Speed Gust Speed Precip Events Conditions
12:17 AM 58.3 °F 50.9 °F 76% 30.15 in 10.0 mi SE 10.4 mph - N/A   Clear
12:36 AM 58.1 °F 50.9 °F 77% 30.14 in 10.0 mi SE 8.1 mph - N/A   Clear
12:55 AM 57.9 °F 51.1 °F 78% 30.14 in 10.0 mi SE 8.1 mph - N/A   Clear
1:15 AM 57.6 °F 51.3 °F 79% 30.13 in 10.0 mi SE 5.8 mph - N/A   Clear
1:38 AM 57.6 °F 51.1 °F 79% 30.12 in 10.0 mi SE 5.8 mph - N/A   Clear
1:56 AM 57.7 °F 50.9 °F 78% 30.13 in 10.0 mi SE 6.9 mph - N/A   Clear
2:15 AM 57.6 °F 50.9 °F 78% 30.12 in 10.0 mi SE 6.9 mph - N/A   Clear
2:35 AM 57.4 °F 50.9 °F 79% 30.12 in 10.0 mi SE 8.1 mph - N/A   Clear
2:59 AM 57.2 °F 51.3 °F 81% 30.12 in 10.0 mi SSE 6.9 mph - N/A   Clear
3:17 AM 57.2 °F 51.1 °F 80% 30.11 in 10.0 mi SE 4.6 mph - N/A   Clear
3:35 AM 57.2 °F 51.1 °F 80% 30.10 in 10.0 mi SE 4.6 mph - N/A   Clear
3:36 AM 57.2 °F 51.1 °F 80% 30.10 in 10.0 mi SE 3.5 mph - N/A   Clear
3:55 AM 57.2 °F 51.4 °F 81% 30.09 in 10.0 mi SE 4.6 mph - N/A   Clear
4:15 AM 57.2 °F 51.6 °F 82% 30.09 in 10.0 mi SE 3.5 mph - N/A   Clear
4:38 AM 57.2 °F 51.8 °F 82% 30.08 in 10.0 mi ESE 5.8 mph - N/A   Mostly Cloudy
4:56 AM 57.2 °F 52.0 °F 83% 30.08 in 10.0 mi SE 3.5 mph - N/A   Overcast
5:15 AM 57.2 °F 52.0 °F 83% 30.08 in 10.0 mi SE 4.6 mph - N/A   Mostly Cloudy
5:35 AM 57.0 °F 52.2 °F 84% 30.07 in 10.0 mi SE 4.6 mph - N/A   Clear
5:59 AM 56.7 °F 52.3 °F 85% 30.06 in 10.0 mi SE 3.5 mph - N/A   Scattered Clouds
6:17 AM 56.8 °F 52.0 °F 84% 30.06 in 10.0 mi Calm Calm - N/A   Scattered Clouds
6:35 AM 56.5 °F 51.3 °F 83% 30.06 in 10.0 mi SSE 4.6 mph - N/A   Mostly Cloudy
6:55 AM 57.4 °F 51.4 °F 81% 30.06 in 10.0 mi SSE 5.8 mph - N/A   Overcast
7:15 AM 57.7 °F 51.4 °F 79% 30.05 in 10.0 mi SSE 8.1 mph - N/A   Scattered Clouds
7:38 AM 58.1 °F 51.8 °F 80% 30.05 in 10.0 mi SSE 6.9 mph - N/A   Scattered Clouds
7:56 AM 58.1 °F 52.2 °F 81% 30.04 in 10.0 mi SE 8.1 mph - N/A   Scattered Clouds
8:15 AM 58.1 °F 52.7 °F 82% 30.04 in 10.0 mi SSE 8.1 mph - N/A   Scattered Clouds
8:35 AM 59.0 °F 53.1 °F 81% 30.04 in 10.0 mi SSE 8.1 mph - N/A   Mostly Cloudy
8:59 AM 60.4 °F 53.6 °F 78% 30.04 in 10.0 mi SSE 13.8 mph - N/A   Overcast
9:17 AM 61.5 °F 53.8 °F 76% 30.03 in 10.0 mi SSE 11.5 mph 18.4 mph N/A   Overcast
9:35 AM 61.0 °F 53.8 °F 77% 30.03 in 10.0 mi SSE 11.5 mph 18.4 mph N/A   Scattered Clouds
9:36 AM 61.0 °F 53.8 °F 77% 30.03 in 10.0 mi SSE 12.7 mph 18.4 mph N/A   Scattered Clouds
9:55 AM 62.8 °F 54.0 °F 73% 30.03 in 10.0 mi SSE 9.2 mph 19.6 mph N/A   Scattered Clouds
10:15 AM 63.9 °F 54.5 °F 72% 30.03 in 10.0 mi SSE 12.7 mph 16.1 mph N/A   Mostly Cloudy
10:20 AM 63.9 °F 54.3 °F 71% 30.03 in 10.0 mi SSE 15.0 mph 20.7 mph N/A   Overcast
10:38 AM 63.1 °F 54.1 °F 72% 30.03 in 10.0 mi SSE 9.2 mph 17.3 mph N/A   Overcast
10:56 AM 63.7 °F 54.7 °F 72% 30.02 in 10.0 mi SSE 12.7 mph 17.3 mph N/A   Mostly Cloudy
11:15 AM 64.9 °F 55.2 °F 71% 30.01 in 10.0 mi SE 12.7 mph 18.4 mph N/A   Scattered Clouds
11:16 AM 65.1 °F 55.2 °F 70% 30.01 in 10.0 mi SE 13.8 mph 19.6 mph N/A   Clear
11:35 AM 64.4 °F 55.2 °F 72% 30.00 in 10.0 mi SE 12.7 mph - N/A   Clear
11:36 AM 64.4 °F 55.2 °F 72% 30.00 in 10.0 mi SE 11.5 mph - N/A   Clear
11:59 AM 66.2 °F 55.0 °F 67% 29.99 in 10.0 mi SE 12.7 mph 21.9 mph N/A   Clear
12:17 PM 66.0 °F 55.4 °F 69% 29.99 in 10.0 mi SE 11.5 mph 19.6 mph N/A   Clear
12:35 PM 64.0 °F 55.4 °F 73% 29.98 in 10.0 mi SE 8.1 mph 16.1 mph N/A   Scattered Clouds
12:55 PM 63.5 °F 55.4 °F 75% 29.97 in 10.0 mi SE 11.5 mph - N/A   Overcast
1:15 PM 64.0 °F 55.4 °F 73% 29.96 in 10.0 mi SE 10.4 mph 17.3 mph N/A   Overcast
1:19 PM 64.4 °F 55.4 °F 73% 29.96 in 10.0 mi SE 10.4 mph 17.3 mph N/A   Overcast
1:38 PM 64.9 °F 55.6 °F 72% 29.95 in 10.0 mi SE 10.4 mph 17.3 mph N/A   Mostly Cloudy
1:56 PM 63.7 °F 55.6 °F 75% 29.94 in 10.0 mi SE 10.4 mph 19.6 mph N/A   Mostly Cloudy
2:15 PM 63.7 °F 55.6 °F 75% 29.93 in 10.0 mi SE 13.8 mph 19.6 mph N/A   Mostly Cloudy
2:35 PM 64.4 °F 55.8 °F 73% 29.92 in 10.0 mi SE 12.7 mph 21.9 mph N/A   Overcast
2:36 PM 64.4 °F 55.8 °F 73% 29.92 in 10.0 mi SE 13.8 mph 21.9 mph N/A   Overcast
2:59 PM 63.5 °F 55.9 °F 76% 29.91 in 10.0 mi SE 10.4 mph - N/A   Overcast
3:17 PM 63.1 °F 57.0 °F 80% 29.90 in 10.0 mi SE 10.4 mph 17.3 mph N/A Rain Light Rain
3:35 PM 63.9 °F 56.5 °F 77% 29.89 in 10.0 mi SE 11.5 mph 18.4 mph N/A   Overcast
3:36 PM 63.9 °F 56.5 °F 77% 29.89 in 10.0 mi SE 13.8 mph 21.9 mph N/A   Overcast
3:55 PM 64.6 °F 56.3 °F 74% 29.88 in 10.0 mi SE 13.8 mph 20.7 mph N/A Rain Light Rain
3:56 PM 64.6 °F 56.3 °F 74% 29.88 in 10.0 mi SE 12.7 mph 20.7 mph N/A Rain Light Rain
4:15 PM 63.5 °F 56.8 °F 79% 29.88 in 10.0 mi SE 9.2 mph 19.6 mph N/A Rain Light Rain
4:20 PM 63.5 °F 56.7 °F 78% 29.88 in 10.0 mi SE 11.5 mph 16.1 mph N/A Rain Light Rain
4:38 PM 62.8 °F 56.5 °F 80% 29.86 in 10.0 mi SE 11.5 mph 18.4 mph N/A Rain Light Rain
4:56 PM 62.6 °F 56.5 °F 80% 29.85 in 10.0 mi SE 13.8 mph 24.2 mph 0.01 in Rain Light Rain
5:15 PM 61.7 °F 56.7 °F 84% 29.85 in 10.0 mi SE 11.5 mph 18.4 mph N/A Rain Light Rain
5:35 PM 61.7 °F 57.2 °F 85% 29.85 in 10.0 mi SE 12.7 mph 23.0 mph 0.03 in Rain Light Rain
5:36 PM 61.7 °F 57.4 °F 86% 29.85 in 10.0 mi SE 13.8 mph 20.7 mph 0.03 in Rain Light Rain
5:59 PM 61.2 °F 57.6 °F 88% 29.83 in 10.0 mi SE 10.4 mph 17.3 mph 0.04 in Rain Light Rain
6:17 PM 61.3 °F 57.4 °F 87% 29.83 in 10.0 mi SE 13.8 mph 18.4 mph 0.01 in Rain Light Rain
6:35 PM 61.7 °F 57.2 °F 85% 29.82 in 10.0 mi SE 12.7 mph 24.2 mph 0.01 in   Overcast
6:55 PM 61.5 °F 56.8 °F 85% 29.82 in 10.0 mi SSE 16.1 mph 21.9 mph 0.01 in Rain Light Rain
6:56 PM 61.5 °F 56.8 °F 85% 29.82 in 10.0 mi SE 16.1 mph 21.9 mph 0.01 in Rain Light Rain
7:15 PM 61.7 °F 56.7 °F 84% 29.81 in 10.0 mi SSE 15.0 mph 24.2 mph N/A Rain Rain
7:20 PM 61.7 °F 56.5 °F 83% 29.81 in 10.0 mi SSE 15.0 mph 24.2 mph N/A   Drizzle
7:38 PM 61.7 °F 56.5 °F 83% 29.80 in 10.0 mi SE 13.8 mph 23.0 mph N/A Rain Light Rain
7:56 PM 62.1 °F 55.9 °F 80% 29.79 in 10.0 mi SE 13.8 mph 21.9 mph N/A   Overcast
8:15 PM 62.1 °F 55.8 °F 80% 29.78 in 10.0 mi SSE 16.1 mph 24.2 mph N/A Rain Rain
8:35 PM 62.8 °F 55.0 °F 76% 29.77 in 10.0 mi SE 16.1 mph 24.2 mph N/A   Overcast
8:36 PM 62.8 °F 55.0 °F 76% 29.77 in 10.0 mi SSE 17.3 mph 24.2 mph N/A   Overcast
8:59 PM 61.5 °F 55.4 °F 80% 29.76 in 10.0 mi SE 13.8 mph 21.9 mph N/A Rain Light Rain
9:17 PM 62.2 °F 54.7 °F 76% 29.74 in 10.0 mi SE 13.8 mph 25.3 mph N/A   Overcast
9:35 PM 63.1 °F 54.0 °F 72% 29.74 in 10.0 mi SSE 18.4 mph 25.3 mph N/A   Overcast
9:36 PM 63.1 °F 53.8 °F 71% 29.74 in 10.0 mi SE 16.1 mph 25.3 mph N/A   Overcast
9:55 PM 63.7 °F 53.6 °F 70% 29.73 in 10.0 mi SSE 17.3 mph 31.1 mph N/A   Overcast
9:56 PM 63.9 °F 53.6 °F 69% 29.73 in 10.0 mi SSE 16.1 mph 31.1 mph N/A   Overcast
10:15 PM 62.8 °F 54.0 °F 73% 29.73 in 10.0 mi SSE 18.4 mph 26.5 mph N/A Rain Light Rain
10:38 PM 62.2 °F 54.9 °F 77% 29.75 in 10.0 mi South 13.8 mph 25.3 mph N/A   Overcast
10:56 PM 57.9 °F 54.0 °F 87% 29.77 in 5.0 mi West 19.6 mph 34.5 mph N/A Rain Light Rain
11:15 PM 53.2 °F 49.8 °F 88% 29.79 in 7.0 mi West 21.9 mph 27.6 mph N/A Rain Light Rain
11:35 PM 51.8 °F 49.3 °F 91% 29.80 in 5.0 mi West 16.1 mph 25.3 mph N/A Rain Heavy Rain
11:59 PM 51.3 °F 50.0 °F 95% 29.82 in 5.0 mi West 9.2 mph - 0.01 in Rain Light Rain